Location: Cicognara
(44.9500°N, 10.4667°E)
Time: 14:42:00
(UTC+00:00)

Tsikada Rocket - Pass Details

Date: 20 June 2021
Orbit: 959 x 1008 km, 82.9° (Epoch: 02 August)

Event Time Altitude Azimuth Distance (km) Brightness Sun altitude
Exits shadow 23:34:11 32° 224° (SW) 1,601 4.7 -21.5°
Maximum altitude 23:36:51 53° 283° (WNW) 1,177 4.4 -21.5°
Drops below altitude 10° 23:42:53 10° 360° (N) 2,703 7.5 -21.4°
Sets 23:45:28 0° 5° (N) 3,652 8.6 -21.4°
